OPS 4682 DEB, 38423

Orbit data source: Space-Track

OPS 4682 DEB, 38423 is space debris in LEO originally from a launch on Sat, 03 Apr 1965 UTC launched from the Air Force Western Test Range (AFWTR). Debris objects in space refer to the collection of defunct objects orbiting the Earth. Examples of debris include non-operational satellites, rocket bodies, and fragments generated from explosions, collisions, or faulty payload assembly.

Loading next visibility...
Identifier
38423, 1965-027EC
Orbit
LEO
Country
Flag of USUS
Related business
Manufacturer
Unknown
Mission
Spacecraft
Bus & Motor
Unknown
Mass
Unknown
Launch date (UTC)
1965-04-03 (61 years ago)
Launch vehicle
Unknown
Launch site
Air Force Western Test Range (AFWTR)
Object type
Payload
Rocket body
Debris
Shape & HBR
Unknown shape, 0.1 m
Radar Cross Section
Small (<0.1 m²)

Expand to show TLE details & history
Last TLE update: 2 days ago

TLE from 2 days ago
0 OPS 4682 DEB
1 38423U 65027EC  26104.19898567  .00000481  00000-0  16835-2 0  9994
2 38423  90.2539  10.3613 0017679  48.5362 311.7272 12.95279662625838
Epoch: 2026-04-14T04:46Z
TLE epoch observation values (Epoch: 2026-04-14T04:46:32.361Z)
Latitude
-0.00007°
Longitude
96.3478°
Altitude
1,274.514 km
Speed
7.223 km/s
True Right ascension
00h 41m 26s
True Declination
0° 00' 00"
Sunlit
Object was in daylight at epoch
Visualization orbit readout
Latitude
Unknown
Longitude
Unknown
Altitude
Unknown
Speed
Unknown
Apparent Right ascension
Unknown
Apparent Declination
Unknown
Sunlit
N/A
Visualization observer readout
Local Sidereal Time
16:26:38
Azimuth
Unknown
Elevation
Unknown
Doppler factor
Unknown
Orbital elements
Apogee altitude
1,291.306 km
Perigee altitude
1,264.236 km
Semi-major axis
7,655.908 km
Eccentricity
0.00177
Inclination
90.2539°
RAAN
10.3613°
Arg. of periapsis
48.5362°
True anomaly
311.57578°
Mean anomaly
311.7272°
Eccentric anomaly
311.65151°
Mean motion
3.24002 °/min
Orbital period
111.11 mins
BSTAR
0.0016835
Loading maneuver chart data...
Computing Atmospheric mass density...
Loading historical data...
Loading historical data...
Loading historical data...
Loading historical data...
Loading historical data...
Loading historical data...
Loading historical data...

Documentation

Showing up to 5 results
|